Weather History for Denali Park, AK

Change the Weather History Date:

Friday, November 16, 2012

  Actual Average Record
Temperature  
Mean Temperature -14 °F -  
Max Temperature 0 °F 15 °F 40 °F (1976)
Min Temperature -27 °F -1 °F -30 °F (1956)
Degree Days  
Heating Degree Days 78    
Moisture  
Dew Point -17 °F    
Average Humidity 84    
Maximum Humidity 100    
Minimum Humidity 75    
Precipitation  
Precipitation 0.00 in - - ()
Sea Level Pressure  
Sea Level Pressure 29.89 in    
Wind  
Wind Speed 2 mph (North)    
Max Wind Speed 13 mph    
Max Gust Speed 18 mph    
Visibility 10 miles    
Events      
Averages and records for this station are not official NWS values.
T = Trace of Precipitation, MM = Missing Value Source: NWS Daily Summary

Daily Weather History Graph

Daily Weather History Graph

Search for Another Location

Airport:

Trip Planner

Search our weather history database for the weather conditions in past years. The results will help you decide how hot, cold, wet, or windy it might be!

Date:

Astronomy

Nov. 16, 2012 Rise Set
Actual Time 9:26 AM AKST 3:54 PM AKST
Civil Twilight 8:26 AM AKST 4:53 PM AKST
Nautical Twilight 7:26 AM AKST 5:53 PM AKST
Astronomical Twilight 6:30 AM AKST 6:49 PM AKST
Moon 12:49 PM AKST (11/16) 6:48 PM AKST (11/16)
Length of Visible Light 8h 27m
Length of Day
6h 27m
Waxing Crescent, 13% of the Moon is Illuminated
Nov 16
Waxing Crescent
Nov 20
First Quarter
Nov 28
Full
Dec 6
Last Quarter
Dec 12
New

Hourly Weather History & Observations

Time (AKST) Temp. Windchill Dew Point Humidity Pressure Visibility Wind Dir Wind Speed Gust Speed Precip Events Conditions
12:16 AM -7.6 °F - -11.2 °F 84% 29.91 in 10.0 mi Calm Calm - N/A   Clear
12:36 AM -9.4 °F - -14.8 °F 77% 29.91 in 10.0 mi Calm Calm - N/A   Partly Cloudy
12:56 AM -11.2 °F - -14.8 °F 84% 29.91 in 10.0 mi Calm Calm - N/A   Partly Cloudy
1:16 AM -11.2 °F - -14.8 °F 84% 29.92 in 10.0 mi Calm Calm - N/A   Clear
1:36 AM -13.0 °F - -16.6 °F 84% 29.92 in 10.0 mi Calm Calm - N/A   Clear
1:56 AM -14.8 °F - -18.4 °F 84% 29.93 in 10.0 mi Calm Calm - N/A   Clear
2:16 AM -14.8 °F - -18.4 °F 84% 29.93 in 10.0 mi Calm Calm - N/A   Clear
2:36 AM -14.8 °F - -18.4 °F 84% 29.93 in 10.0 mi Calm Calm - N/A   Clear
2:56 AM -16.6 °F - -18.4 °F 92% 29.94 in 10.0 mi Calm Calm - N/A   Clear
3:16 AM -16.6 °F - -20.2 °F 84% 29.94 in 10.0 mi Calm Calm - N/A   Clear
3:36 AM -16.6 °F - -20.2 °F 84% 29.94 in 10.0 mi Calm Calm - N/A   Scattered Clouds
3:56 AM -16.6 °F - -20.2 °F 84% 29.94 in 10.0 mi Calm Calm - N/A   Scattered Clouds
4:16 AM -16.6 °F -31.3 °F -20.2 °F 84% 29.94 in 10.0 mi NE 5.8 mph - N/A   Partly Cloudy
4:36 AM -14.8 °F - -18.4 °F 84% 29.94 in 10.0 mi Calm Calm - N/A   Scattered Clouds
4:56 AM -16.6 °F - -20.2 °F 84% 29.94 in 10.0 mi Calm Calm - N/A   Scattered Clouds
5:16 AM -16.6 °F - -20.2 °F 84% 29.94 in 10.0 mi Calm Calm - N/A   Partly Cloudy
5:36 AM -16.6 °F - -20.2 °F 84% 29.95 in 10.0 mi Calm Calm - N/A   Partly Cloudy
5:56 AM -16.6 °F - -20.2 °F 84% 29.95 in 10.0 mi Calm Calm - N/A   Clear
6:16 AM -18.4 °F - -22.0 °F 84% 29.95 in 10.0 mi Calm Calm - N/A   Clear
6:36 AM -18.4 °F - -23.8 °F 76% 29.95 in 10.0 mi Calm Calm - N/A   Clear
6:56 AM -18.4 °F - -23.8 °F 76% 29.95 in 10.0 mi Calm Calm - N/A   Clear
7:16 AM -18.4 °F -28.9 °F -22.0 °F 84% 29.95 in 7.0 mi ENE 3.5 mph - N/A   Clear
7:36 AM -18.4 °F -28.9 °F -20.2 °F 91% 29.94 in 10.0 mi NE 3.5 mph - N/A   Clear
7:56 AM -9.4 °F -27.9 °F -9.4 °F 100% 29.94 in 10.0 mi North 10.4 mph - N/A   Clear
8:16 AM -5.8 °F -19.9 °F -7.6 °F 92% 29.95 in 10.0 mi North 6.9 mph - N/A   Clear
8:36 AM -4.0 °F -23.0 °F -5.8 °F 92% 29.94 in 10.0 mi North 12.7 mph 17.3 mph N/A   Clear
8:56 AM -2.2 °F -19.9 °F -5.8 °F 85% 29.93 in 10.0 mi North 11.5 mph - N/A   Clear
9:16 AM -2.2 °F -18.0 °F -5.8 °F 85% 29.94 in 10.0 mi NNE 9.2 mph - N/A   Clear
9:36 AM -2.2 °F -10.4 °F -5.8 °F 85% 29.94 in 10.0 mi SE 3.5 mph - N/A   Clear
9:56 AM -9.4 °F - -14.8 °F 77% 29.94 in 10.0 mi Calm Calm - N/A   Clear
10:16 AM -14.8 °F - -18.4 °F 84% 29.95 in 7.0 mi Calm Calm - N/A   Clear
10:36 AM -16.6 °F - -20.2 °F 84% 29.94 in 10.0 mi Calm Calm - N/A   Clear
10:56 AM -16.6 °F - -18.4 °F 92% 29.94 in 10.0 mi Calm Calm - N/A   Clear
11:16 AM -14.8 °F - -18.4 °F 84% 29.93 in 10.0 mi Calm Calm - N/A   Clear
11:36 AM -11.2 °F - -16.6 °F 77% 29.93 in 10.0 mi Calm Calm - N/A   Clear
11:56 AM -11.2 °F - -16.6 °F 77% 29.92 in 10.0 mi Calm Calm - N/A   Clear
12:16 PM -11.2 °F - -14.8 °F 84% 29.92 in 10.0 mi Calm Calm - N/A   Clear
12:36 PM -9.4 °F - -14.8 °F 77% 29.91 in 10.0 mi Calm Calm - N/A   Clear
12:56 PM -5.8 °F -19.9 °F -7.6 °F 92% 29.91 in 10.0 mi NNW 6.9 mph - N/A   Clear
1:16 PM -2.2 °F -14.2 °F -5.8 °F 85% 29.90 in 10.0 mi NW 5.8 mph - N/A   Clear
1:36 PM -0.4 °F -12.0 °F -4.0 °F 85% 29.90 in 10.0 mi WNW 5.8 mph - N/A   Clear
1:56 PM -0.4 °F -10.4 °F -4.0 °F 85% 29.90 in 10.0 mi NNW 4.6 mph - N/A   Clear
2:16 PM -0.4 °F -10.4 °F -4.0 °F 85% 29.89 in 10.0 mi NNW 4.6 mph 18.4 mph N/A   Clear
2:36 PM -2.2 °F -12.5 °F -5.8 °F 85% 29.88 in 10.0 mi NW 4.6 mph - N/A   Clear
2:56 PM -2.2 °F -14.2 °F -5.8 °F 85% 29.88 in 10.0 mi NNW 5.8 mph - N/A   Clear
3:16 PM -4.0 °F -20.2 °F -7.6 °F 85% 29.87 in 10.0 mi North 9.2 mph - N/A   Clear
3:36 PM -5.8 °F -18.4 °F -7.6 °F 92% 29.87 in 10.0 mi North 5.8 mph - N/A   Clear
3:56 PM -5.8 °F -19.9 °F -7.6 °F 92% 29.86 in 10.0 mi NNW 6.9 mph - N/A   Clear
4:16 PM -5.8 °F -16.7 °F -7.6 °F 92% 29.86 in 10.0 mi NNW 4.6 mph - N/A   Clear
4:36 PM -5.8 °F -16.7 °F -7.6 °F 92% 29.86 in 10.0 mi North 4.6 mph - N/A   Clear
4:56 PM -5.8 °F -21.2 °F -9.4 °F 84% 29.86 in 10.0 mi NW 8.1 mph - N/A   Clear
5:16 PM -5.8 °F -19.9 °F -9.4 °F 84% 29.86 in 10.0 mi North 6.9 mph 17.3 mph N/A   Clear
5:36 PM -7.6 °F -26.6 °F -9.4 °F 92% 29.85 in 10.0 mi NNE 11.5 mph 17.3 mph N/A   Clear
5:56 PM -7.6 °F -18.8 °F -9.4 °F 92% 29.85 in 10.0 mi North 4.6 mph 17.3 mph N/A   Clear
6:16 PM -7.6 °F -18.8 °F -11.2 °F 84% 29.85 in 10.0 mi NNE 4.6 mph - N/A   Clear
6:36 PM -7.6 °F -24.6 °F -9.4 °F 92% 29.84 in 10.0 mi North 9.2 mph - N/A   Clear
6:56 PM -9.4 °F -18.6 °F -14.8 °F 77% 29.84 in 10.0 mi ENE 3.5 mph - N/A   Clear
7:16 PM -14.8 °F - -20.2 °F 77% 29.84 in 10.0 mi Calm Calm - N/A   Clear
7:36 PM -18.4 °F - -23.8 °F 76% 29.83 in 10.0 mi Calm Calm - N/A   Clear
7:56 PM -20.2 °F - -23.8 °F 83% 29.82 in 10.0 mi Calm Calm - N/A   Clear
8:16 PM -20.2 °F - -25.6 °F 76% 29.82 in 10.0 mi Calm Calm - N/A   Clear
8:36 PM -22.0 °F - -25.6 °F 83% 29.82 in 10.0 mi Calm Calm - N/A   Clear
8:56 PM -23.8 °F - -27.4 °F 83% 29.81 in 10.0 mi Calm Calm - N/A   Clear
9:16 PM -23.8 °F - -25.6 °F 91% 29.81 in 10.0 mi Calm Calm - N/A   Clear
9:36 PM -23.8 °F - -27.4 °F 83% 29.80 in 10.0 mi Calm Calm - N/A   Clear
9:56 PM -23.8 °F - -29.2 °F 76% 29.80 in 10.0 mi Calm Calm - N/A   Clear
10:16 PM -25.6 °F - -29.2 °F 83% 29.79 in 10.0 mi Calm Calm - N/A   Clear
10:36 PM -25.6 °F - -31.0 °F 76% 29.79 in 10.0 mi Calm Calm - N/A   Clear
10:56 PM -27.4 °F - -31.0 °F 83% 29.79 in 10.0 mi Calm Calm - N/A   Clear
11:16 PM -27.4 °F - -32.8 °F 75% 29.78 in 10.0 mi Calm Calm - N/A   Clear
11:36 PM -27.4 °F - -32.8 °F 75% 29.77 in 10.0 mi Calm Calm - N/A   Clear
11:56 PM -27.4 °F - -32.8 °F 75% 29.76 in 10.0 mi Calm Calm - N/A   Clear